| time (UTC) | temp F | wind direction | speed MPH | gust MPH | rain 1hr in | rain 24hr in | rain mn in | humidity % | barometer mb |
| 20260502164021 | 63 | 357 | 4.0 | 10.0 | 0.00 | 0.00 | 0.00 | 36 | 1015.7 |
| 20260502163521 | 63 | 320 | 3.0 | 12.0 | 0.00 | 0.00 | 0.00 | 38 | 1015.9 |
| 20260502163052 | 63 | 52 | 3.0 | 14.0 | 0.00 | 0.00 | 0.00 | 37 | 1015.7 |
| 20260502162524 | 63 | 25 | 4.0 | 16.0 | 0.00 | 0.00 | 0.00 | 38 | 1015.8 |
| 20260502162025 | 62 | 40 | 5.0 | 16.0 | 0.00 | 0.00 | 0.00 | 37 | 1015.8 |
| 20260502161544 | 62 | 44 | 6.0 | 16.0 | 0.00 | 0.00 | 0.00 | 38 | 1015.8 |
| 20260502161021 | 62 | 247 | 4.0 | 16.0 | 0.00 | 0.00 | 0.00 | 38 | 1015.8 |
| 20260502160527 | 62 | 360 | 7.0 | 16.0 | 0.00 | 0.00 | 0.00 | 38 | 1015.7 |
| 20260502152021 | 60 | 316 | 5.0 | 11.0 | 0.00 | 0.00 | 0.00 | 41 | 1015.5 |
| 20260502151545 | 60 | 83 | 5.0 | 14.0 | 0.00 | 0.00 | 0.00 | 41 | 1015.5 |
| 20260502151021 | 60 | 18 | 4.0 | 14.0 | 0.00 | 0.00 | 0.00 | 42 | 1015.4 |
| 20260502150554 | 60 | 50 | 4.0 | 11.0 | 0.00 | 0.00 | 0.00 | 41 | 1015.2 |
| 20260502130523 | 55 | 345 | 3.0 | 11.0 | 0.00 | 0.00 | 0.00 | 58 | 1014.7 |
| 20260502123523 | 54 | 13 | 2.0 | 6.0 | 0.00 | 0.00 | 0.00 | 60 | 1014.5 |
| 20260502123038 | 54 | 355 | 1.0 | 6.0 | 0.00 | 0.00 | 0.00 | 60 | 1014.5 |
| 20260502122523 | 54 | 4 | 1.0 | 7.0 | 0.00 | 0.00 | 0.00 | 60 | 1014.5 |
| 20260502122021 | 54 | 37 | 2.0 | 7.0 | 0.00 | 0.00 | 0.00 | 60 | 1014.4 |
| 20260502121550 | 54 | 154 | 2.0 | 11.0 | 0.00 | 0.00 | 0.00 | 60 | 1014.4 |
| 20260502121022 | 54 | 33 | 1.0 | 11.0 | 0.00 | 0.00 | 0.00 | 60 | 1014.4 |
| 20260502120520 | 53 | 49 | 2.0 | 8.0 | 0.00 | 0.00 | 0.00 | 60 | 1014.4 |
| 20260502115521 | 53 | 83 | 1.0 | 3.0 | 0.00 | 0.00 | 0.00 | 60 | 1014.3 |
| 20260502115021 | 53 | 66 | 1.0 | 6.0 | 0.00 | 0.00 | 0.00 | 60 | 1014.4 |
| 20260502114543 | 53 | 33 | 1.0 | 6.0 | 0.00 | 0.00 | 0.00 | 60 | 1014.5 |
| 20260502114021 | 53 | 13 | 1.0 | 7.0 | 0.00 | 0.00 | 0.00 | 60 | 1014.4 |
| 20260502113521 | 53 | 8 | 2.0 | 7.0 | 0.00 | 0.00 | 0.00 | 60 | 1014.3 |
| 20260502113037 | 53 | 44 | 2.0 | 7.0 | 0.00 | 0.00 | 0.00 | 60 | 1014.4 |
| 20260502112523 | 53 | 51 | 1.0 | 7.0 | 0.00 | 0.00 | 0.00 | 59 | 1014.3 |
| 20260502112020 | 53 | 21 | 2.0 | 7.0 | 0.00 | 0.00 | 0.00 | 59 | 1014.3 |
| 20260502111538 | 53 | 359 | 1.0 | 7.0 | 0.00 | 0.00 | 0.00 | 60 | 1014.4 |
| 20260502111023 | 53 | 2 | 1.0 | 7.0 | 0.00 | 0.00 | 0.00 | 60 | 1014.2 |
| 20260502110521 | 53 | 13 | 2.0 | 5.0 | 0.00 | 0.00 | 0.00 | 60 | 1014.3 |
| 20260502110053 | 53 | 352 | 1.0 | 7.0 | 0.00 | 0.00 | 0.00 | 60 | 1014.3 |
| 20260502105522 | 54 | 347 | 3.0 | 7.0 | 0.00 | 0.00 | 0.00 | 60 | 1014.0 |
| 20260502105023 | 54 | 352 | 1.0 | 4.0 | 0.00 | 0.00 | 0.00 | 60 | 1014.0 |
| 20260502104544 | 54 | 47 | 1.0 | 6.0 | 0.00 | 0.00 | 0.00 | 61 | 1013.8 |
| 20260502104021 | 54 | 360 | 0.0 | 7.0 | 0.00 | 0.00 | 0.00 | 60 | 1014.0 |
| 20260502103522 | 54 | 17 | 3.0 | 7.0 | 0.00 | 0.00 | 0.00 | 60 | 1013.9 |
| 20260502103043 | 54 | 358 | 2.0 | 8.0 | 0.00 | 0.00 | 0.00 | 61 | 1013.9 |
| 20260502102521 | 54 | 5 | 2.0 | 8.0 | 0.00 | 0.00 | 0.00 | 60 | 1013.7 |
| 20260502102021 | 54 | 4 | 2.0 | 7.0 | 0.00 | 0.00 | 0.00 | 60 | 1013.6 |
| 20260502101550 | 54 | 25 | 2.0 | 7.0 | 0.00 | 0.00 | 0.00 | 60 | 1013.7 |
| 20260502101023 | 54 | 11 | 1.0 | 4.0 | 0.00 | 0.00 | 0.00 | 60 | 1013.9 |
| 20260502100525 | 54 | 18 | 1.0 | 2.0 | 0.00 | 0.00 | 0.00 | 60 | 1013.9 |
| 20260502091023 | 54 | 354 | 2.0 | 6.0 | 0.00 | 0.00 | 0.00 | 56 | 1013.7 |
| 20260502090522 | 54 | 337 | 2.0 | 7.0 | 0.00 | 0.00 | 0.00 | 55 | 1013.6 |
| 20260502071021 | 56 | 356 | 3.0 | 10.0 | 0.00 | 0.00 | 0.00 | 49 | 1014.2 |
| 20260502070524 | 56 | 5 | 4.0 | 10.0 | 0.00 | 0.00 | 0.00 | 49 | 1014.4 |
| 20260502070037 | 56 | 20 | 2.0 | 7.0 | 0.00 | 0.00 | 0.00 | 49 | 1014.6 |
| 20260502065521 | 56 | 7 | 3.0 | 6.0 | 0.00 | 0.00 | 0.00 | 48 | 1014.6 |
| 20260502065027 | 56 | 40 | 2.0 | 7.0 | 0.00 | 0.00 | 0.00 | 49 | 1014.6 |
| 20260502064540 | 57 | 349 | 2.0 | 8.0 | 0.00 | 0.00 | 0.00 | 48 | 1014.6 |
| 20260502064023 | 57 | 25 | 4.0 | 8.0 | 0.00 | 0.00 | 0.00 | 48 | 1014.6 |
| 20260502063523 | 57 | 357 | 3.0 | 8.0 | 0.00 | 0.00 | 0.00 | 48 | 1014.6 |
| 20260502063045 | 57 | 7 | 3.0 | 8.0 | 0.00 | 0.00 | 0.00 | 47 | 1014.5 |
| 20260502062520 | 57 | 356 | 3.0 | 7.0 | 0.00 | 0.00 | 0.00 | 47 | 1014.3 |
| 20260502062024 | 57 | 352 | 3.0 | 7.0 | 0.00 | 0.00 | 0.00 | 47 | 1014.5 |
| 20260502061542 | 57 | 13 | 2.0 | 7.0 | 0.00 | 0.00 | 0.00 | 47 | 1014.4 |
| 20260502061024 | 57 | 40 | 2.0 | 11.0 | 0.00 | 0.00 | 0.00 | 47 | 1014.4 |
| 20260502060522 | 57 | 354 | 4.0 | 11.0 | 0.00 | 0.00 | 0.00 | 47 | 1014.5 |
| 20260502060041 | 58 | 355 | 4.0 | 11.0 | 0.00 | 0.00 | 0.00 | 47 | 1014.7 |
| 20260502055521 | 58 | 4 | 4.0 | 9.0 | 0.00 | 0.00 | 0.00 | 46 | 1014.7 |
| 20260502055022 | 58 | 2 | 3.0 | 10.0 | 0.00 | 0.00 | 0.00 | 47 | 1014.7 |
| 20260502054543 | 58 | 357 | 4.0 | 10.0 | 0.00 | 0.00 | 0.00 | 47 | 1014.7 |
| 20260502054023 | 58 | 356 | 3.0 | 10.0 | 0.00 | 0.00 | 0.00 | 46 | 1014.6 |
| 20260502053523 | 58 | 6 | 4.0 | 9.0 | 0.00 | 0.00 | 0.00 | 47 | 1014.5 |
| 20260502053040 | 58 | 311 | 3.0 | 9.0 | 0.00 | 0.00 | 0.00 | 47 | 1014.4 |
| 20260502052524 | 58 | 9 | 2.0 | 7.0 | 0.00 | 0.00 | 0.00 | 47 | 1014.3 |
| 20260502052025 | 58 | 17 | 1.0 | 7.0 | 0.00 | 0.00 | 0.00 | 47 | 1014.4 |
| 20260502051545 | 58 | 13 | 2.0 | 10.0 | 0.00 | 0.00 | 0.00 | 47 | 1014.2 |
| 20260502051024 | 58 | 353 | 3.0 | 10.0 | 0.00 | 0.00 | 0.00 | 47 | 1014.3 |
| 20260502050523 | 58 | 11 | 4.0 | 10.0 | 0.00 | 0.00 | 0.00 | 46 | 1014.3 |
| 20260502050039 | 58 | 12 | 3.0 | 7.0 | 0.00 | 0.00 | 0.00 | 46 | 1014.2 |
| 20260502045524 | 59 | 85 | 2.0 | 5.0 | 0.00 | 0.00 | 0.00 | 49 | 1014.2 |
| 20260502045027 | 59 | 38 | 1.0 | 8.0 | 0.00 | 0.00 | 0.00 | 49 | 1014.2 |
| 20260502044541 | 59 | 348 | 2.0 | 8.0 | 0.00 | 0.00 | 0.00 | 50 | 1014.4 |
| 20260502044026 | 59 | 21 | 1.0 | 6.0 | 0.00 | 0.00 | 0.00 | 51 | 1014.4 |
| 20260502043523 | 59 | 3 | 2.0 | 8.0 | 0.00 | 0.00 | 0.00 | 51 | 1014.4 |
| 20260502043041 | 59 | 9 | 2.0 | 8.0 | 0.00 | 0.00 | 0.00 | 52 | 1014.3 |
| 20260502042520 | 59 | 360 | 2.0 | 10.0 | 0.00 | 0.00 | 0.00 | 52 | 1014.3 |
| 20260502042023 | 59 | 9 | 2.0 | 10.0 | 0.00 | 0.00 | 0.00 | 52 | 1014.2 |
| 20260502041601 | 60 | 13 | 3.0 | 10.0 | 0.00 | 0.00 | 0.00 | 53 | 1014.3 |
| 20260502041021 | 60 | 13 | 1.0 | 5.0 | 0.00 | 0.00 | 0.00 | 55 | 1014.4 |
| 20260502040523 | 60 | 41 | 1.0 | 5.0 | 0.00 | 0.00 | 0.00 | 54 | 1014.3 |
| 20260502040044 | 60 | 342 | 3.0 | 8.0 | 0.00 | 0.00 | 0.00 | 54 | 1014.4 |
| 20260502035524 | 60 | 354 | 2.0 | 8.0 | 0.00 | 0.00 | 0.00 | 54 | 1014.5 |
| 20260502035024 | 60 | 350 | 2.0 | 10.0 | 0.00 | 0.00 | 0.00 | 55 | 1014.4 |
| 20260502034537 | 60 | 345 | 3.0 | 10.0 | 0.00 | 0.00 | 0.00 | 55 | 1014.5 |
| 20260502034024 | 60 | 15 | 2.0 | 8.0 | 0.00 | 0.00 | 0.00 | 55 | 1014.4 |
| 20260502033523 | 60 | 344 | 2.0 | 8.0 | 0.00 | 0.00 | 0.00 | 55 | 1014.4 |
| 20260502033050 | 60 | 11 | 3.0 | 10.0 | 0.00 | 0.00 | 0.00 | 55 | 1014.5 |
| 20260502032523 | 61 | 19 | 3.0 | 10.0 | 0.00 | 0.00 | 0.00 | 55 | 1014.5 |
| 20260502032023 | 61 | 33 | 4.0 | 10.0 | 0.00 | 0.00 | 0.00 | 55 | 1014.4 |
| 20260502031535 | 61 | 8 | 3.0 | 9.0 | 0.00 | 0.00 | 0.00 | 56 | 1014.4 |
| 20260502031023 | 61 | 355 | 1.0 | 6.0 | 0.00 | 0.00 | 0.00 | 56 | 1014.4 |
| 20260502030523 | 61 | 345 | 2.0 | 10.0 | 0.00 | 0.00 | 0.00 | 56 | 1014.4 |
| 20260502030043 | 61 | 349 | 4.0 | 10.0 | 0.00 | 0.00 | 0.00 | 56 | 1014.4 |
| 20260502025528 | 61 | 4 | 2.0 | 5.0 | 0.00 | 0.00 | 0.00 | 57 | 1014.4 |
| 20260502025023 | 61 | 356 | 2.0 | 9.0 | 0.00 | 0.00 | 0.00 | 57 | 1014.3 |
| 20260502024543 | 61 | 60 | 2.0 | 8.0 | 0.00 | 0.00 | 0.00 | 57 | 1014.2 |
| 20260502024024 | 61 | 25 | 1.0 | 4.0 | 0.00 | 0.00 | 0.00 | 59 | 1014.3 |
| 20260502023523 | 61 | 43 | 2.0 | 6.0 | 0.00 | 0.00 | 0.00 | 59 | 1014.2 |
| 20260502023044 | 61 | 356 | 1.0 | 6.0 | 0.00 | 0.00 | 0.00 | 60 | 1014.2 |
| 20260502022523 | 61 | 29 | 1.0 | 5.0 | 0.00 | 0.00 | 0.00 | 61 | 1014.2 |
| 20260502022026 | 61 | 341 | 1.0 | 6.0 | 0.00 | 0.00 | 0.00 | 61 | 1014.2 |
| 20260502021543 | 60 | 358 | 2.0 | 6.0 | 0.00 | 0.00 | 0.00 | 62 | 1014.2 |
| 20260502021026 | 60 | 39 | 1.0 | 5.0 | 0.00 | 0.00 | 0.00 | 63 | 1014.1 |
| 20260502020524 | 60 | 77 | 1.0 | 4.0 | 0.00 | 0.00 | 0.00 | 66 | 1014.1 |
| 20260502020043 | 61 | 6 | 0.0 | 4.0 | 0.00 | 0.00 | 0.00 | 67 | 1014.0 |
| 20260502015524 | 61 | 354 | 0.0 | 4.0 | 0.00 | 0.00 | 0.00 | 68 | 1013.9 |
| 20260502015026 | 61 | 336 | 0.0 | 2.0 | 0.00 | 0.00 | 0.00 | 67 | 1013.8 |
| 20260502014542 | 61 | 0 | 0.0 | 2.0 | 0.00 | 0.00 | 0.00 | 66 | 1013.8 |
| 20260502014023 | 61 | 21 | 0.0 | 2.0 | 0.00 | 0.00 | 0.00 | 66 | 1013.8 |
| 20260502013523 | 61 | 0 | 0.0 | 2.0 | 0.00 | 0.00 | 0.00 | 64 | 1013.8 |
| 20260502013037 | 61 | 33 | 0.0 | 4.0 | 0.00 | 0.00 | 0.00 | 64 | 1013.6 |
| 20260502012523 | 62 | 0 | 0.0 | 4.0 | 0.00 | 0.00 | 0.00 | 63 | 1013.6 |
| 20260502012022 | 62 | 345 | 0.0 | 2.0 | 0.00 | 0.00 | 0.00 | 63 | 1013.5 |
| 20260502011537 | 62 | 335 | 0.0 | 2.0 | 0.00 | 0.00 | 0.00 | 62 | 1013.4 |
| 20260502011022 | 62 | 323 | 0.0 | 2.0 | 0.00 | 0.00 | 0.00 | 62 | 1013.2 |
| 20260502010522 | 62 | 322 | 0.0 | 2.0 | 0.00 | 0.00 | 0.00 | 62 | 1013.2 |
| 20260502010044 | 62 | 27 | 0.0 | 3.0 | 0.00 | 0.00 | 0.00 | 59 | 1013.1 |
| 20260502005522 | 62 | 0 | 1.0 | 3.0 | 0.00 | 0.00 | 0.00 | 58 | 1012.8 |
| 20260502005025 | 63 | 120 | 1.0 | 3.0 | 0.00 | 0.00 | 0.00 | 57 | 1012.8 |
| 20260502004541 | 63 | 5 | 1.0 | 3.0 | 0.00 | 0.00 | 0.00 | 62 | 1012.8 |
| 20260502004025 | 63 | 0 | 1.0 | 3.0 | 0.00 | 0.00 | 0.00 | 60 | 1012.6 |
| 20260502003521 | 63 | 110 | 2.0 | 3.0 | 0.00 | 0.00 | 0.00 | 58 | 1012.7 |
| 20260502003041 | 64 | 117 | 1.0 | 2.0 | 0.00 | 0.00 | 0.00 | 56 | 1012.6 |
| 20260502002523 | 64 | 106 | 0.0 | 2.0 | 0.00 | 0.00 | 0.00 | 56 | 1012.7 |
| 20260502002023 | 64 | 106 | 1.0 | 2.0 | 0.00 | 0.00 | 0.00 | 56 | 1012.7 |
| 20260502001541 | 64 | 0 | 0.0 | 2.0 | 0.00 | 0.00 | 0.00 | 54 | 1012.7 |
| 20260502001022 | 65 | 0 | 0.0 | 2.0 | 0.00 | 0.00 | 0.00 | 53 | 1012.5 |
| 20260502000523 | 65 | 153 | 0.0 | 2.0 | 0.00 | 0.00 | 0.00 | 52 | 1012.3 |
| 20260502000048 | 65 | 326 | 0.0 | 2.0 | 0.00 | 0.00 | 0.00 | 52 | 1012.3 |
| 20260501235522 | 65 | 0 | 0.0 | 3.0 | 0.00 | 0.00 | 0.00 | 51 | 1012.3 |
| 20260501235022 | 65 | 148 | 1.0 | 3.0 | 0.00 | 0.00 | 0.00 | 52 | 1012.3 |
| 20260501234547 | 65 | 130 | 2.0 | 3.0 | 0.00 | 0.00 | 0.00 | 51 | 1012.1 |
| 20260501234022 | 65 | 99 | 2.0 | 3.0 | 0.00 | 0.00 | 0.00 | 51 | 1012.1 |
| 20260501233522 | 66 | 132 | 2.0 | 4.0 | 0.00 | 0.00 | 0.00 | 50 | 1012.2 |
| 20260501233050 | 66 | 154 | 2.0 | 4.0 | 0.00 | 0.00 | 0.00 | 50 | 1012.2 |
| 20260501232523 | 66 | 121 | 1.0 | 4.0 | 0.00 | 0.00 | 0.00 | 50 | 1012.4 |
| 20260501232022 | 66 | 135 | 2.0 | 4.0 | 0.00 | 0.00 | 0.00 | 50 | 1012.4 |
| 20260501231556 | 67 | 130 | 2.0 | 3.0 | 0.00 | 0.00 | 0.00 | 52 | 1012.4 |
| 20260501231023 | 67 | 144 | 2.0 | 4.0 | 0.00 | 0.00 | 0.00 | 52 | 1012.4 |
| 20260501230527 | 67 | 123 | 2.0 | 4.0 | 0.00 | 0.00 | 0.00 | 51 | 1012.3 |
| 20260501230041 | 67 | 96 | 2.0 | 5.0 | 0.00 | 0.00 | 0.00 | 50 | 1012.2 |
| 20260501225522 | 68 | 112 | 3.0 | 5.0 | 0.00 | 0.00 | 0.00 | 50 | 1012.0 |
| 20260501225026 | 68 | 139 | 3.0 | 4.0 | 0.00 | 0.00 | 0.00 | 50 | 1011.9 |
| 20260501224537 | 68 | 129 | 2.0 | 5.0 | 0.00 | 0.00 | 0.00 | 49 | 1011.9 |
| 20260501224020 | 68 | 131 | 3.0 | 5.0 | 0.00 | 0.00 | 0.00 | 48 | 1011.9 |
| 20260501223522 | 69 | 121 | 3.0 | 4.0 | 0.00 | 0.00 | 0.00 | 47 | 1011.9 |
| 20260501223106 | 69 | 185 | 0.0 | 4.0 | 0.00 | 0.00 | 0.00 | 47 | 1011.9 |
| 20260501222523 | 69 | 142 | 1.0 | 4.0 | 0.00 | 0.00 | 0.00 | 45 | 1011.8 |
| 20260501222022 | 69 | 100 | 1.0 | 4.0 | 0.00 | 0.00 | 0.00 | 44 | 1011.9 |
| 20260501221538 | 69 | 207 | 1.0 | 3.0 | 0.00 | 0.00 | 0.00 | 45 | 1011.9 |
| 20260501221023 | 69 | 141 | 1.0 | 5.0 | 0.00 | 0.00 | 0.00 | 44 | 1011.5 |
| 20260501220523 | 68 | 225 | 1.0 | 5.0 | 0.00 | 0.00 | 0.00 | 46 | 1011.7 |
| 20260501220043 | 68 | 21 | 3.0 | 5.0 | 0.00 | 0.00 | 0.00 | 44 | 1011.7 |
| 20260501215523 | 68 | 148 | 1.0 | 4.0 | 0.00 | 0.00 | 0.00 | 44 | 1011.9 |
| 20260501215025 | 68 | 146 | 2.0 | 4.0 | 0.00 | 0.00 | 0.00 | 43 | 1012.1 |
| 20260501214541 | 68 | 247 | 1.0 | 3.0 | 0.00 | 0.00 | 0.00 | 44 | 1012.1 |
| 20260501214022 | 68 | 275 | 1.0 | 4.0 | 0.00 | 0.00 | 0.00 | 43 | 1012.3 |
| 20260501213521 | 68 | 282 | 1.0 | 6.0 | 0.00 | 0.00 | 0.00 | 44 | 1012.3 |
| 20260501213041 | 68 | 208 | 2.0 | 6.0 | 0.00 | 0.00 | 0.00 | 43 | 1012.4 |
| 20260501212522 | 68 | 194 | 2.0 | 5.0 | 0.00 | 0.00 | 0.00 | 42 | 1012.5 |
| 20260501212022 | 68 | 238 | 2.0 | 5.0 | 0.00 | 0.00 | 0.00 | 43 | 1012.6 |
| 20260501211537 | 68 | 312 | 2.0 | 5.0 | 0.00 | 0.00 | 0.00 | 42 | 1012.6 |
| 20260501211022 | 68 | 284 | 2.0 | 6.0 | 0.00 | 0.00 | 0.00 | 41 | 1012.7 |
| 20260501210523 | 69 | 237 | 2.0 | 6.0 | 0.00 | 0.00 | 0.00 | 43 | 1012.8 |
| 20260501210040 | 69 | 289 | 3.0 | 6.0 | 0.00 | 0.00 | 0.00 | 41 | 1012.8 |
| 20260501205522 | 69 | 298 | 2.0 | 6.0 | 0.00 | 0.00 | 0.00 | 42 | 1012.9 |
| 20260501205022 | 68 | 319 | 2.0 | 6.0 | 0.00 | 0.00 | 0.00 | 42 | 1012.8 |
| 20260501204555 | 68 | 332 | 1.0 | 4.0 | 0.00 | 0.00 | 0.00 | 43 | 1012.9 |
| 20260501204023 | 68 | 309 | 1.0 | 3.0 | 0.00 | 0.00 | 0.00 | 39 | 1013.0 |
| 20260501203522 | 69 | 292 | 2.0 | 4.0 | 0.00 | 0.00 | 0.00 | 40 | 1013.0 |
| 20260501203041 | 69 | 308 | 2.0 | 3.0 | 0.00 | 0.00 | 0.00 | 42 | 1013.1 |
| 20260501202522 | 68 | 307 | 1.0 | 4.0 | 0.00 | 0.00 | 0.00 | 42 | 1013.0 |
| 20260501202024 | 68 | 314 | 1.0 | 4.0 | 0.00 | 0.00 | 0.00 | 43 | 1013.1 |
| 20260501201541 | 68 | 285 | 2.0 | 4.0 | 0.00 | 0.00 | 0.00 | 42 | 1013.2 |
| 20260501201021 | 68 | 287 | 2.0 | 3.0 | 0.00 | 0.00 | 0.00 | 44 | 1013.3 |
| 20260501200522 | 68 | 341 | 0.0 | 3.0 | 0.00 | 0.00 | 0.00 | 44 | 1013.3 |
| 20260501200040 | 68 | 0 | 1.0 | 3.0 | 0.00 | 0.00 | 0.00 | 43 | 1013.4 |
| 20260501195521 | 69 | 284 | 1.0 | 4.0 | 0.00 | 0.00 | 0.00 | 45 | 1013.5 |
| 20260501195021 | 69 | 307 | 1.0 | 4.0 | 0.00 | 0.00 | 0.00 | 43 | 1013.7 |
| 20260501194540 | 69 | 329 | 1.0 | 4.0 | 0.00 | 0.00 | 0.00 | 44 | 1013.7 |
| 20260501194021 | 68 | 342 | 1.0 | 4.0 | 0.00 | 0.00 | 0.00 | 44 | 1013.7 |
| 20260501193521 | 68 | 156 | 2.0 | 4.0 | 0.00 | 0.00 | 0.00 | 42 | 1013.6 |
| 20260501193040 | 68 | 143 | 2.0 | 5.0 | 0.00 | 0.00 | 0.00 | 43 | 1013.7 |
| 20260501192522 | 68 | 173 | 1.0 | 5.0 | 0.00 | 0.00 | 0.00 | 44 | 1013.7 |
| 20260501192023 | 68 | 107 | 0.0 | 4.0 | 0.00 | 0.00 | 0.00 | 45 | 1013.8 |
| 20260501191549 | 68 | 104 | 1.0 | 4.0 | 0.00 | 0.00 | 0.00 | 43 | 1013.9 |
| 20260501191022 | 68 | 87 | 2.0 | 4.0 | 0.00 | 0.00 | 0.00 | 43 | 1014.1 |
| 20260501190523 | 68 | 142 | 1.0 | 3.0 | 0.00 | 0.00 | 0.00 | 43 | 1014.0 |
| 20260501190040 | 68 | 310 | 0.0 | 3.0 | 0.00 | 0.00 | 0.00 | 44 | 1014.0 |
| 20260501185522 | 68 | 0 | 1.0 | 3.0 | 0.00 | 0.00 | 0.00 | 42 | 1013.9 |
| 20260501185022 | 68 | 150 | 1.0 | 3.0 | 0.00 | 0.00 | 0.00 | 43 | 1013.8 |
| 20260501184541 | 68 | 109 | 2.0 | 4.0 | 0.00 | 0.00 | 0.00 | 42 | 1013.8 |
| 20260501184022 | 68 | 148 | 1.0 | 4.0 | 0.00 | 0.00 | 0.00 | 42 | 1013.6 |
| 20260501183524 | 68 | 164 | 1.0 | 4.0 | 0.00 | 0.00 | 0.00 | 44 | 1013.7 |
| 20260501183042 | 68 | 87 | 1.0 | 4.0 | 0.00 | 0.00 | 0.00 | 44 | 1013.8 |
| 20260501182522 | 68 | 104 | 2.0 | 4.0 | 0.00 | 0.00 | 0.00 | 42 | 1014.0 |
| 20260501182024 | 68 | 101 | 0.0 | 2.0 | 0.00 | 0.00 | 0.00 | 44 | 1014.1 |
| 20260501181540 | 68 | 83 | 0.0 | 2.0 | 0.00 | 0.00 | 0.00 | 42 | 1014.1 |
| 20260501181020 | 68 | 75 | 0.0 | 2.0 | 0.00 | 0.00 | 0.00 | 41 | 1014.2 |
| 20260501180521 | 68 | 91 | 1.0 | 2.0 | 0.00 | 0.00 | 0.00 | 41 | 1014.3 |
| 20260501180053 | 68 | 170 | 1.0 | 2.0 | 0.00 | 0.00 | 0.00 | 42 | 1014.3 |
| 20260501175526 | 67 | 196 | 1.0 | 4.0 | 0.00 | 0.00 | 0.00 | 42 | 1014.3 |
| 20260501175021 | 67 | 294 | 2.0 | 4.0 | 0.00 | 0.00 | 0.00 | 40 | 1014.3 |
| 20260501174556 | 68 | 166 | 1.0 | 4.0 | 0.00 | 0.00 | 0.00 | 41 | 1014.3 |
| 20260501174025 | 68 | 153 | 2.0 | 4.0 | 0.00 | 0.00 | 0.00 | 41 | 1014.3 |
| 20260501173521 | 68 | 90 | 0.0 | 3.0 | 0.00 | 0.00 | 0.00 | 40 | 1014.3 |
| 20260501173046 | 68 | 86 | 0.0 | 5.0 | 0.00 | 0.00 | 0.00 | 42 | 1014.2 |
| 20260501172525 | 68 | 100 | 2.0 | 5.0 | 0.00 | 0.00 | 0.00 | 40 | 1014.2 |
| 20260501172021 | 68 | 117 | 2.0 | 3.0 | 0.00 | 0.00 | 0.00 | 43 | 1014.2 |
| 20260501171543 | 68 | 105 | 1.0 | 3.0 | 0.00 | 0.00 | 0.00 | 41 | 1014.4 |